Location: Del Amo
(33.8464°N, 118.2104°W)
Time: 08:03:40
(UTC+00:00)

Vanguard 3 - Pass Details

Date: 16 September 2024
Orbit: 507 x 3223 km, 33.3° (Epoch: 09 October)

Event Time Altitude Azimuth Distance (km) Brightness Sun altitude
Rises 15:01:39 0° 251° (WSW) 6,709 11.3 16.6°
Reaches altitude 10° 15:05:47 10° 251° (WSW) 5,890 11.1 17.5°
Maximum altitude 15:25:28 83° 167° (SSE) 3,176 10.6 21.5°
Drops below altitude 10° 15:42:23 10° 82° (E) 5,177 12.6 24.9°
Sets 15:45:45 0° 82° (E) 5,901 12.6 25.6°
